Vorticity
-1 -0 -2 2 -0 4 1 6 3 3 2 3 4 4 4 2 5 6 2 4 4 4 0 -1 5 7 3 0 1 2 2 6 6 5 6 6 4 6 4 3 2 1 3 5 3 4 5 5 6
1 2 3 2 2 2 3 1 4 3 3 2 3 4 4 5 4 4 4 5 4 3 5 1 0 2 6 6 3 3 2 -0 2 4 6 6 6 7 7 5 5 5 5 4 4 4 6 7 7
8 9 7 5 4 4 5 8 7 6 5 5 3 4 6 5 5 5 5 6 5 5 5 4 3 1 -0 2 3 5 4 2 3 3 4 4 5 5 5 6 5 5 5 6 4 2 3 4 5
12 12 14 15 14 11 13 8 7 8 8 7 7 8 9 7 6 7 4 3 5 7 7 6 3 3 3 3 3 2 4 5 4 3 4 4 4 4 4 3 2 4 5 5 5 7 6 5 4
9 10 9 10 8 11 10 8 8 8 9 10 10 11 11 12 11 9 8 6 5 5 6 7 8 6 2 1 3 5 5 2 3 4 3 1 0 1 2 2 2 2 2 2 2 2 4 5 3
7 9 11 14 12 12 8 7 7 8 9 9 11 12 15 12 12 9 9 10 8 6 6 6 7 8 6 3 2 1 2 6 6 -1 0 4 7 6 4 4 6 6 7 6 7 6 5 4 4
8 6 6 8 9 9 10 9 8 4 4 6 7 9 6 8 9 10 9 8 6 5 6 6 5 6 9 8 4 2 2 2 4 6 9 6 2 5 5 4 9 11 6 5 1 2 1 3 3
7 9 5 4 4 5 7 9 9 7 6 5 4 6 10 9 8 8 7 8 10 10 8 8 7 6 8 10 5 4 4 4 2 0 1 5 6 2 4 7 7 3 -1 -1 5 2 6 5 4
3 3 6 8 7 7 4 5 4 5 6 8 6 2 7 6 6 6 7 8 8 8 7 7 8 9 9 8 3 3 8 5 4 5 5 5 7 7 8 4 -1 8 4 -3 -8 -3 4 8 1
3 4 2 3 3 2 3 5 7 6 4 10 8 12 6 6 6 7 7 8 10 10 8 10 9 7 7 6 6 3 3 7 5 4 1 4 6 6 7 7 11 1 -1 1 1 3 -6 -0 -2
1 2 2 4 3 4 3 4 7 9 4 9 7 5 6 7 6 3 2 2 2 5 9 11 12 7 8 8 8 7 6 4 3 4 3 4 5 6 -1 5 6 13 9 10 8 10 9 10 13
-0 2 2 1 1 2 3 3 3 3 -0 3 3 6 6 6 5 5 9 6 6 5 4 4 6 11 13 10 6 5 7 7 8 9 8 7 8 10 6 9 8 10 7 11 7 5 3 4 14
3 2 2 1 2 1 2 2 2 10 1 4 3 2 3 2 3 5 7 5 6 4 8 4 5 8 6 9 12 11 9 6 5 4 3 5 6 8 6 5 9 7 7 5 6 4 4 11 10
3 2 3 3 3 3 4 3 4 -2 3 3 4 3 3 1 3 6 2 2 5 8 9 7 6 5 7 11 8 9 8 7 8 8 8 3 8 11 4 8 7 10 4 7 9 6 8 7 2
5 8 4 4 4 5 4 5 10 5 4 2 3 3 5 4 5 5 6 2 2 4 12 6 6 8 7 4 2 9 14 14 14 12 10 9 9 10 9 9 10 5 2 8 9 8 7 8 8
7 7 10 9 7 7 7 10 5 4 5 6 4 7 6 7 5 6 7 4 2 12 12 7 7 9 7 5 7 7 6 7 10 12 12 15 11 11 8 9 12 12 11 12 9 -3 3 12 6
10 6 11 14 14 11 10 12 9 9 7 9 11 10 8 10 8 6 6 5 9 8 3 10 7 5 6 6 6 8 8 12 11 12 10 8 12 11 11 10 11 9 12 10 3 1 2 9 -6
4 6 8 11 8 7 11 11 12 9 11 11 15 17 15 10 9 9 5 5 14 13 12 13 7 6 5 5 2 2 1 0 2 0 2 11 13 8 14 10 6 8 9 6 5 -2 4 10 1
3 2 2 12 4 4 5 7 2 6 10 12 14 13 9 6 5 6 9 5 2 4 8 9 10 6 4 2 6 5 2 3 3 5 12 11 11 10 10 9 7 8 7 4 6 3 5 1 10
1 2 1 2 3 4 8 7 6 6 7 14 9 2 5 14 12 12 14 18 13 14 10 7 6 4 5 7 7 12 10 7 5 8 9 10 9 11 8 10 10 9 10 4 5 2 12 9 13
5 2 3 5 6 5 5 7 9 14 14 7 3 -5 7 14 19 19 -1 4 10 10 5 3 2 6 6 4 4 5 7 11 10 8 11 7 11 10 10 10 10 10 6 4 3 3 4 2 1
10 10 9 6 4 2 4 3 7 1 7 5 5 10 12 -3 10 -1 10 15 16 7 4 5 4 3 4 8 12 12 9 8 12 13 7 11 9 11 11 11 10 7 3 3 4 8 6 4 7
6 7 7 3 4 1 5 -3 -1 7 6 6 2 3 3 18 9 6 15 10 7 9 -1 0 3 7 8 5 3 8 6 6 6 9 6 8 9 8 10 8 9 4 2 1 3 7 5 7 6
8 5 6 9 6 3 5 4 7 7 6 2 7 3 10 12 4 7 16 8 9 13 12 11 10 8 8 9 15 9 10 8 6 6 7 9 8 10 11 10 7 4 2 2 7 9 7 9 6
7 9 6 4 4 -0 5 9 6 8 3 8 6 8 8 8 10 12 10 6 16 16 13 9 6 5 7 9 10 13 9 11 11 9 13 13 9 10 12 13 8 6 4 4 7 10 8 5 5
5 7 6 7 8 9 11 4 1 6 7 9 5 4 9 20 39 5 14 21 6 -0 4 7 7 4 6 6 5 9 3 11 9 8 8 9 7 6 10 10 10 9 5 4 7 9 6 5 6
7 -3 6 3 7 5 0 1 7 2 6 3 -2 8 15 2 3 3 0 6 5 8 5 7 6 6 5 3 9 11 12 16 8 8 6 7 8 7 8 8 9 6 4 7 11 8 1 10 13
5 9 6 6 5 5 9 8 2 -4 7 10 16 3 -2 21 4 6 9 5 2 8 12 10 7 9 10 10 8 7 8 8 7 4 3 2 5 9 10 7 9 8 9 9 13 8 2 -1 17
10 9 12 6 3 5 6 3 -1 6 4 5 4 13 -3 -4 -2 10 6 1 6 5 5 8 11 6 12 12 -0 5 11 6 4 -2 4 8 12 12 7 4 8 7 10 11 9 11 10 19 8
1 -0 -7 -10 1 15 10 1 2 11 13 9 6 5 9 7 5 3 14 5 4 11 11 5 6 9 7 6 9 14 7 4 4 9 6 8 9 5 3 8 9 8 8 10 9 16 5 -1 15
Height
5873 5872 5871 5871 5873 5870 5867 5867 5866 5866 5866 5865 5864 5863 5862 5862 5862 5863 5861 5861 5861 5861 5860 5860 5860 5860 5859 5859 5859 5860 5860 5860 5860 5861 5861 5861 5861 5862 5862 5862 5862 5863 5863 5863 5863 5864 5864 5864 5865
5871 5871 5870 5869 5869 5867 5864 5865 5864 5865 5864 5863 5863 5862 5861 5861 5860 5861 5860 5860 5859 5859 5859 5859 5858 5858 5858 5859 5860 5859 5859 5859 5860 5860 5861 5861 5861 5862 5862 5862 5861 5861 5862 5863 5862 5863 5864 5865 5865
5869 5868 5868 5867 5866 5864 5863 5863 5862 5862 5861 5861 5860 5860 5859 5858 5858 5858 5858 5858 5858 5858 5857 5857 5857 5858 5858 5857 5858 5858 5858 5858 5859 5858 5859 5858 5859 5860 5860 5860 5860 5860 5861 5862 5861 5861 5862 5862 5863
5867 5867 5866 5864 5863 5861 5862 5860 5859 5859 5858 5858 5857 5857 5856 5855 5854 5854 5855 5855 5856 5856 5855 5855 5855 5856 5856 5855 5855 5856 5856 5857 5857 5856 5857 5857 5857 5858 5858 5858 5858 5859 5859 5860 5860 5860 5860 5860 5860
5866 5864 5863 5863 5861 5860 5860 5858 5857 5857 5856 5855 5854 5853 5852 5851 5851 5850 5850 5851 5852 5853 5853 5853 5853 5853 5852 5852 5853 5853 5853 5854 5854 5854 5854 5854 5855 5855 5855 5855 5855 5856 5856 5856 5856 5857 5857 5857 5857
5864 5863 5862 5860 5858 5858 5857 5856 5855 5854 5853 5852 5851 5849 5849 5847 5847 5846 5846 5847 5847 5848 5849 5849 5849 5849 5849 5849 5849 5850 5851 5851 5850 5850 5850 5851 5851 5851 5851 5851 5851 5851 5852 5852 5852 5852 5852 5853 5854
5863 5862 5860 5859 5858 5857 5856 5855 5854 5853 5852 5851 5849 5847 5847 5845 5844 5843 5843 5842 5842 5843 5844 5844 5844 5844 5845 5846 5846 5847 5847 5847 5848 5848 5848 5848 5848 5848 5848 5848 5847 5848 5848 5848 5848 5848 5848 5849 5849
5862 5861 5860 5858 5857 5857 5855 5854 5853 5851 5850 5849 5847 5846 5845 5842 5842 5841 5840 5840 5840 5839 5839 5839 5840 5840 5841 5842 5842 5843 5843 5843 5843 5843 5844 5844 5844 5844 5844 5843 5844 5844 5844 5845 5844 5844 5844 5844 5844
5861 5860 5859 5857 5856 5855 5854 5853 5852 5849 5848 5846 5845 5844 5843 5841 5840 5838 5838 5837 5836 5835 5835 5835 5835 5836 5836 5837 5838 5838 5838 5838 5838 5838 5838 5838 5838 5838 5838 5838 5838 5839 5839 5839 5839 5839 5839 5839 5839
5859 5858 5857 5855 5853 5852 5852 5851 5850 5848 5845 5844 5842 5842 5840 5840 5839 5837 5836 5834 5833 5832 5832 5831 5830 5830 5830 5831 5831 5832 5832 5832 5833 5832 5832 5832 5832 5832 5831 5832 5832 5832 5831 5831 5832 5832 5833 5833 5833
5857 5855 5854 5853 5851 5850 5848 5847 5846 5845 5842 5842 5840 5839 5837 5837 5835 5834 5832 5831 5830 5828 5827 5827 5826 5825 5825 5825 5825 5825 5825 5825 5825 5825 5825 5824 5824 5825 5824 5824 5823 5823 5824 5824 5824 5824 5824 5825 5825
5854 5851 5851 5849 5848 5846 5845 5844 5843 5841 5837 5838 5837 5834 5835 5833 5831 5829 5828 5827 5826 5824 5823 5821 5820 5819 5818 5817 5818 5818 5818 5817 5817 5817 5816 5816 5816 5815 5815 5814 5814 5814 5815 5815 5815 5816 5816 5816 5817
5848 5847 5846 5844 5843 5841 5840 5839 5838 5837 5833 5832 5831 5831 5829 5828 5826 5825 5823 5821 5820 5818 5817 5814 5814 5812 5811 5810 5810 5810 5809 5809 5808 5808 5808 5807 5806 5806 5805 5806 5806 5806 5805 5804 5805 5805 5805 5805 5806
5841 5840 5840 5839 5836 5835 5833 5833 5832 5831 5829 5826 5825 5825 5822 5823 5820 5818 5815 5815 5813 5812 5810 5808 5805 5805 5804 5803 5802 5801 5800 5800 5800 5799 5798 5798 5797 5797 5796 5796 5796 5795 5795 5795 5795 5795 5795 5795 5796
5832 5832 5832 5832 5829 5826 5823 5827 5827 5824 5823 5822 5819 5817 5816 5814 5812 5811 5808 5807 5804 5804 5803 5800 5799 5797 5796 5796 5795 5793 5792 5791 5790 5789 5788 5787 5786 5786 5787 5786 5786 5785 5785 5783 5783 5784 5785 5785 5785
5825 5821 5820 5823 5819 5816 5814 5817 5819 5814 5813 5816 5813 5810 5807 5806 5803 5801 5799 5798 5796 5795 5793 5791 5789 5788 5787 5787 5786 5785 5783 5783 5781 5779 5778 5777 5777 5776 5776 5776 5774 5773 5772 5772 5772 5773 5773 5773 5773
5817 5810 5811 5812 5810 5802 5801 5805 5812 5804 5800 5804 5803 5802 5799 5796 5796 5794 5790 5787 5787 5784 5783 5782 5781 5780 5779 5778 5776 5775 5774 5774 5772 5770 5769 5768 5767 5765 5764 5764 5763 5762 5761 5761 5762 5761 5761 5761 5760
5808 5801 5801 5802 5801 5789 5791 5793 5798 5800 5794 5792 5794 5793 5789 5787 5785 5786 5784 5778 5778 5775 5774 5773 5771 5770 5769 5768 5767 5766 5765 5763 5762 5760 5759 5757 5756 5754 5753 5752 5751 5749 5749 5749 5749 5748 5748 5748 5748
5800 5798 5794 5800 5798 5779 5783 5780 5785 5787 5792 5788 5787 5785 5780 5777 5776 5775 5774 5771 5768 5766 5765 5764 5762 5760 5759 5758 5757 5755 5754 5753 5751 5749 5747 5746 5743 5742 5742 5740 5739 5738 5737 5737 5737 5736 5734 5732 5733
5791 5786 5786 5785 5787 5775 5772 5768 5775 5778 5780 5783 5780 5777 5774 5769 5766 5766 5764 5760 5757 5755 5755 5753 5752 5751 5750 5749 5747 5745 5743 5742 5739 5738 5736 5734 5732 5731 5730 5728 5726 5726 5725 5725 5724 5724 5722 5720 5717
5783 5779 5778 5775 5776 5764 5762 5752 5765 5770 5771 5772 5773 5770 5766 5761 5757 5758 5756 5752 5749 5747 5746 5745 5743 5742 5741 5740 5737 5734 5732 5729 5728 5725 5724 5722 5720 5718 5717 5715 5714 5713 5712 5712 5711 5709 5708 5707 5702
5768 5773 5768 5765 5761 5753 5755 5731 5751 5759 5759 5760 5761 5761 5758 5755 5751 5749 5747 5743 5740 5738 5737 5736 5734 5732 5730 5728 5725 5722 5720 5718 5716 5714 5712 5710 5708 5706 5704 5703 5702 5700 5699 5698 5696 5694 5691 5691 5687
5758 5759 5759 5756 5750 5741 5741 5740 5733 5741 5745 5748 5749 5748 5747 5744 5742 5739 5736 5734 5731 5728 5727 5724 5721 5720 5719 5718 5716 5712 5709 5707 5704 5701 5699 5697 5695 5693 5691 5690 5689 5687 5685 5683 5681 5677 5675 5673 5671
5750 5747 5746 5743 5739 5724 5732 5734 5722 5729 5732 5733 5732 5734 5734 5731 5730 5729 5726 5723 5721 5719 5716 5713 5711 5709 5708 5707 5705 5702 5698 5694 5692 5688 5686 5684 5682 5681 5678 5676 5675 5673 5671 5668 5666 5662 5658 5656 5653
5738 5734 5732 5727 5724 5716 5723 5718 5713 5718 5719 5720 5717 5717 5721 5721 5715 5711 5713 5713 5712 5709 5706 5702 5699 5696 5695 5693 5691 5690 5688 5683 5680 5677 5674 5672 5670 5667 5664 5661 5659 5658 5656 5654 5651 5647 5642 5638 5634
5722 5721 5718 5712 5714 5708 5708 5696 5701 5709 5709 5709 5705 5705 5708 5711 5707 5703 5703 5701 5698 5696 5693 5689 5686 5684 5684 5681 5679 5677 5676 5673 5668 5664 5661 5658 5656 5653 5651 5648 5645 5643 5641 5637 5634 5629 5624 5621 5616
5708 5703 5709 5700 5702 5695 5692 5690 5692 5695 5693 5695 5695 5693 5693 5694 5695 5693 5691 5688 5682 5682 5677 5674 5672 5669 5669 5668 5667 5662 5659 5658 5654 5649 5645 5642 5641 5638 5635 5632 5630 5627 5623 5620 5616 5611 5606 5603 5598
5689 5696 5690 5686 5682 5679 5681 5683 5684 5685 5683 5679 5679 5679 5679 5679 5680 5680 5678 5674 5669 5664 5662 5659 5657 5656 5654 5654 5651 5648 5645 5642 5638 5635 5631 5628 5624 5622 5619 5616 5612 5609 5606 5601 5598 5594 5589 5585 5579
5680 5676 5673 5670 5667 5661 5666 5673 5673 5671 5671 5669 5668 5667 5665 5664 5664 5662 5660 5658 5656 5650 5647 5645 5643 5641 5641 5639 5637 5635 5632 5627 5623 5619 5616 5613 5609 5606 5602 5598 5594 5590 5586 5583 5580 5576 5571 5566 5560
5659 5658 5657 5653 5657 5648 5648 5648 5662 5664 5664 5660 5656 5653 5653 5653 5648 5641 5641 5643 5639 5636 5633 5631 5626 5627 5625 5624 5622 5620 5617 5610 5607 5603 5599 5596 5592 5588 5583 5579 5575 5571 5566 5563 5560 5557 5552 5547 5540